Theta_e
312 312 312 312 312 312 312 312 313 312 311 311 312 312 312 312 312 313 313 313 314 314 314 315 316 317 312 305 306 312 328 326 317 312 309 304 298 294 291 295 297 296 299 302 305 307 308
312 312 312 312 312 312 312 311 311 313 313 312 312 312 312 312 312 312 313 313 313 313 314 315 316 318 309 300 307 311 317 311 311 306 302 303 299 301 295 294 293 297 299 301 303 302 306
312 312 312 313 313 312 312 313 312 312 312 313 313 312 312 312 312 312 313 313 313 313 314 315 316 314 304 301 308 306 307 302 305 307 304 305 305 300 298 294 298 298 294 297 299 301 301
313 314 313 313 313 312 312 312 312 312 312 312 312 312 311 312 312 312 312 313 312 313 314 317 317 309 300 314 309 306 305 304 307 306 306 306 306 300 296 298 297 293 293 286 293 300 301
313 314 314 313 313 312 311 311 311 311 311 312 312 311 311 311 311 312 312 312 312 313 315 318 309 305 302 313 305 307 305 304 306 305 306 308 303 297 297 291 287 289 285 286 290 296 298
313 313 312 312 311 311 310 310 310 310 311 311 311 311 311 311 312 312 311 312 313 313 313 312 312 301 306 303 304 307 307 308 303 303 302 301 296 292 290 288 280 284 286 289 288 292 295
312 312 312 312 311 311 310 310 310 312 311 310 311 311 310 311 312 311 308 306 302 301 304 303 305 305 304 304 307 305 308 304 302 299 292 296 289 287 291 294 294 292 290 289 293 296 293
311 312 312 311 311 311 310 311 312 312 311 311 310 311 311 311 312 311 305 301 302 301 295 304 304 303 306 304 299 303 308 298 296 290 294 290 286 293 297 296 294 293 290 289 293 295 294
311 311 311 310 310 310 312 312 312 312 311 311 310 310 311 312 311 307 304 308 307 306 294 299 305 302 302 301 298 299 303 299 294 291 291 287 291 296 294 292 291 290 289 289 289 294 295
310 310 310 310 310 310 312 312 312 312 311 310 310 310 310 310 306 307 305 308 308 307 288 296 298 300 302 301 297 305 304 299 294 290 291 289 293 293 291 290 292 287 293 292 291 288 283
310 310 310 310 310 311 311 312 312 312 311 310 309 309 310 309 302 303 305 307 308 303 281 297 297 304 301 297 298 300 305 299 292 292 291 288 290 290 290 292 295 291 296 293 292 289 285
310 310 309 309 309 311 311 311 311 311 310 308 308 309 308 308 305 307 311 308 305 290 282 292 297 296 294 297 298 301 299 300 299 293 293 291 296 294 294 297 296 297 293 291 290 287 280
310 310 310 309 310 311 311 310 310 310 308 308 307 307 306 308 303 311 309 303 289 285 298 292 292 295 294 293 295 297 294 291 287 284 284 289 289 294 298 292 295 292 286 278 276 278 278
310 310 310 309 310 311 310 310 309 308 307 307 306 306 308 308 307 309 305 295 283 294 293 296 294 294 291 295 295 295 292 288 294 290 283 281 280 290 295 291 287 288 288 280 275 275 278
309 309 309 311 311 310 310 309 308 307 306 306 305 307 308 311 312 308 297 286 288 293 295 292 293 290 290 294 293 292 290 290 293 294 285 283 285 294 295 295 294 290 284 291 284 285 279
308 308 310 310 310 310 309 308 307 307 307 305 301 304 308 314 312 303 292 291 294 296 295 294 287 292 287 289 289 289 290 294 293 296 295 289 283 292 293 295 294 290 293 282 284 275 275
309 310 310 310 310 310 309 308 307 307 306 305 301 301 308 313 307 296 288 292 296 299 297 293 291 290 290 289 289 288 289 293 296 295 295 291 288 287 291 288 286 287 286 286 285 283 275
309 310 310 311 310 310 308 307 307 306 305 303 301 295 309 307 291 295 291 297 297 297 299 296 296 293 291 291 289 288 288 292 298 296 290 293 287 282 285 292 294 291 289 287 282 279 282
309 310 310 310 310 309 308 307 307 306 305 300 296 300 308 305 289 290 295 295 297 297 296 294 293 294 293 289 286 291 292 297 298 295 291 291 285 280 282 287 292 288 289 290 288 287 281
309 309 310 310 309 309 307 306 307 306 305 301 299 293 300 301 299 293 291 292 292 299 297 297 295 294 292 290 292 290 290 295 297 296 298 296 289 284 279 283 287 285 288 289 287 283 282
309 309 310 310 309 307 306 306 307 305 305 302 300 295 295 290 291 293 294 293 292 291 297 296 292 292 291 286 288 288 291 293 295 300 296 293 286 287 288 289 290 288 288 288 286 287 283
309 309 310 308 306 305 305 305 306 305 304 302 293 291 293 290 294 293 294 290 290 292 291 290 290 292 291 287 288 287 291 291 289 295 293 294 285 289 287 289 289 287 289 289 288 288 288
308 309 308 306 305 304 304 305 305 305 304 298 300 298 295 290 291 290 290 291 291 293 295 295 293 290 290 292 295 296 296 295 295 292 289 287 287 285 281 288 288 283 288 289 290 292 290
308 308 306 305 304 303 303 303 303 304 304 299 300 298 293 286 289 289 291 292 292 291 289 294 295 291 296 301 299 298 296 298 299 294 292 286 287 286 280 284 275 287 296 295 291 293 296
309 307 305 304 303 302 302 302 302 303 304 299 300 300 295 287 290 290 292 292 293 294 293 292 296 298 299 296 291 288 288 292 295 296 294 293 289 283 280 277 285 289 292 291 289 289 295
307 305 304 303 302 302 302 302 302 302 303 299 298 305 299 290 288 294 290 293 289 289 291 293 296 299 296 295 289 283 279 288 284 290 296 293 292 285 282 277 277 287 294 297 294 283 294
306 304 303 302 302 302 302 302 302 302 302 299 297 300 301 292 294 294 290 289 292 292 290 291 293 292 298 292 284 282 282 291 280 282 284 286 286 282 282 280 283 293 294 296 283 284 293
305 303 302 301 301 301 301 301 301 302 303 301 296 300 297 292 293 295 296 293 294 291 289 292 290 292 289 288 289 286 284 287 284 289 282 283 284 283 285 281 279 295 293 286 291 294 294
304 302 301 301 301 301 301 301 301 302 303 304 296 301 301 294 293 299 298 299 297 296 292 293 292 292 292 290 290 289 285 286 285 278 291 284 286 285 285 285 293 294 293 297 297 294 294
Wind_Speed
16 17 17 18 18 19 19 18 17 18 18 18 18 19 20 21 21 20 20 20 20 20 19 18 18 16 9 3 8 9 15 14 9 6 11 8 6 6 8 6 13 21 18 17 20 19 24
16 17 17 18 18 18 18 19 19 18 18 18 19 20 21 21 21 21 21 20 19 19 19 18 16 13 4 5 2 12 12 12 11 6 3 8 6 9 7 8 9 9 15 16 17 18 19
18 18 18 19 19 20 21 20 20 20 19 18 19 20 22 22 22 22 21 19 18 19 20 17 12 6 6 15 4 3 7 4 7 5 2 4 8 7 10 10 8 11 12 14 17 13 16
18 19 19 20 21 22 22 22 22 22 22 22 22 22 23 23 23 23 23 20 20 21 19 15 6 4 8 5 10 6 7 8 6 7 5 7 6 4 5 8 11 8 9 7 2 13 19
18 18 18 18 18 19 20 21 22 23 23 23 23 23 25 26 24 24 22 22 23 21 15 9 4 5 8 4 4 3 3 5 6 6 7 8 4 5 5 6 6 5 9 11 16 8 8
18 18 19 20 20 20 21 22 23 24 25 25 25 24 24 26 26 23 22 23 15 7 8 7 8 4 8 5 4 2 8 2 7 8 8 7 5 5 4 4 5 7 10 10 15 6 13
18 19 19 21 22 20 22 22 23 21 23 25 24 25 28 26 24 20 11 7 3 1 4 9 7 11 16 5 4 5 4 3 7 7 5 7 4 6 13 13 16 15 15 13 13 9 12
19 19 19 21 22 20 22 22 22 23 23 24 26 25 27 26 24 18 5 4 7 6 8 12 16 16 11 3 6 8 3 3 6 7 9 7 6 8 13 12 12 12 16 15 11 11 14
19 19 20 21 22 22 22 22 22 23 24 24 24 25 25 26 25 7 5 8 6 7 4 12 11 8 6 1 5 8 3 3 6 8 8 7 12 15 17 16 15 12 14 10 14 10 12
20 20 21 23 21 24 22 22 23 24 25 26 26 26 25 28 6 4 2 5 7 7 3 6 5 4 3 5 7 9 7 5 3 7 8 7 10 15 13 14 15 16 14 18 17 11 12
20 21 21 19 21 21 22 23 24 25 26 26 26 26 27 14 8 5 4 5 4 3 2 6 9 6 4 6 6 12 9 6 9 12 6 10 11 14 10 12 17 13 23 13 18 18 10
20 22 22 22 23 20 21 23 26 26 27 28 27 27 24 2 4 10 10 8 4 1 4 6 6 6 7 9 9 4 8 8 9 11 9 11 8 1 3 10 10 14 13 15 15 8 12
17 18 20 22 22 20 22 22 25 27 28 29 30 31 18 5 5 9 6 5 2 3 5 6 6 13 12 14 16 7 2 4 4 5 6 6 5 2 4 5 7 10 7 5 5 8 14
16 18 18 20 20 21 22 23 25 27 28 30 32 32 5 6 7 9 4 2 2 8 7 12 12 12 15 12 11 13 12 6 7 6 4 5 8 1 3 5 4 6 3 4 5 5 7
18 18 18 19 20 21 21 24 25 27 29 32 28 5 2 4 7 2 3 2 1 10 12 13 13 11 11 17 9 11 8 5 6 9 6 6 7 11 8 13 10 5 7 15 10 8 3
19 19 17 18 19 20 21 24 26 27 29 33 7 4 3 6 2 2 1 4 4 8 11 9 6 6 12 13 10 11 9 8 14 13 12 7 15 6 11 13 11 8 6 6 3 3 4
17 17 18 18 19 17 21 24 25 27 30 31 2 2 1 4 3 1 1 4 14 12 2 3 10 12 9 8 11 13 10 14 10 11 9 7 4 10 10 5 13 13 4 5 3 1 4
18 19 19 19 18 16 19 23 25 26 28 10 5 2 4 2 1 2 3 7 13 13 9 5 1 5 6 9 9 10 12 7 9 5 5 3 4 11 19 18 18 13 4 5 4 5 4
17 19 19 19 17 16 19 21 24 24 19 7 7 4 1 2 0 4 8 13 13 14 9 5 5 5 6 7 5 7 13 11 7 5 4 3 4 7 10 6 4 4 4 4 0 5 7
16 17 18 18 17 16 18 20 23 24 22 7 4 5 3 2 4 7 8 7 13 9 8 14 3 7 7 8 7 7 13 7 7 5 1 1 4 9 11 15 10 18 13 11 5 4 10
16 16 17 15 17 19 19 19 21 25 27 4 2 4 5 5 5 11 11 7 10 9 7 9 7 10 10 7 12 12 14 20 9 5 2 6 7 12 20 20 20 22 19 19 19 16 16
14 15 16 17 19 19 18 18 19 22 29 3 4 5 6 7 10 9 11 5 7 10 10 10 8 11 10 11 14 20 16 13 8 6 3 3 5 8 16 21 20 22 19 21 19 19 18
14 14 15 16 18 18 17 17 18 19 18 3 4 3 3 7 7 7 4 10 13 10 2 9 11 10 12 16 15 14 15 18 18 7 4 3 3 4 6 11 13 7 8 10 9 14 14
13 11 14 16 17 16 16 16 16 15 13 4 4 2 2 5 7 8 17 14 15 14 16 14 9 9 8 12 15 16 18 12 8 8 7 6 3 3 8 9 2 2 15 7 10 7 13
12 12 14 15 15 15 15 15 14 14 13 5 5 2 1 6 8 17 13 15 15 10 8 11 10 13 10 9 5 8 5 4 6 10 10 5 2 3 4 3 12 9 17 14 9 8 12
9 12 14 14 14 14 14 14 14 13 12 5 7 3 2 3 6 9 13 12 10 10 9 7 17 11 6 3 2 3 3 5 5 4 6 7 3 2 3 5 4 6 14 15 14 8 12
8 11 12 13 14 14 14 14 14 13 11 7 6 5 3 5 11 8 7 10 9 10 9 7 8 9 6 3 2 4 4 5 2 2 4 2 3 5 6 7 7 6 12 13 4 5 19
9 10 11 12 14 14 14 14 14 13 12 5 7 8 4 6 15 21 21 15 10 7 5 4 6 5 4 4 3 4 3 4 4 4 3 3 3 3 3 3 6 8 9 3 9 20 18
9 10 11 12 14 14 15 15 15 14 14 10 5 7 6 6 9 21 25 25 26 28 13 5 5 4 3 4 3 3 3 4 5 4 3 2 5 3 5 6 8 14 9 9 9 12 17
Wind_Direction
14 11 9 7 4 1 358 355 352 348 345 341 338 334 332 328 325 321 317 316 315 313 311 312 317 325 336 252 247 186 203 221 244 219 231 269 296 268 241 245 236 257 269 261 248 245 257
14 11 8 6 3 360 357 356 353 347 343 339 337 334 330 326 322 318 315 312 309 308 307 308 313 316 233 261 83 173 204 226 216 223 308 313 297 309 272 281 278 296 292 278 268 260 245
10 8 5 3 1 359 356 352 350 347 344 340 337 335 331 326 321 317 313 308 306 305 303 304 304 287 261 244 290 302 259 342 291 280 276 252 330 360 335 320 292 324 310 291 278 274 264
9 7 5 2 0 358 354 351 350 347 343 339 336 333 332 326 321 317 312 309 305 298 296 298 274 280 253 275 234 287 15 320 312 345 287 290 202 255 279 278 297 299 290 289 360 244 264
7 6 4 2 358 355 351 349 347 345 342 339 335 332 331 328 322 319 313 305 294 286 282 270 241 202 274 160 210 58 329 287 298 285 292 272 168 198 292 283 295 240 266 276 286 272 263
8 6 4 2 359 357 353 350 348 345 342 339 335 331 328 326 322 321 317 294 277 310 250 235 248 270 274 257 73 349 266 281 297 267 272 236 196 190 245 208 240 251 257 256 254 268 256
6 3 3 360 358 356 354 350 346 340 337 337 333 327 329 324 322 325 337 342 355 316 246 248 226 240 299 323 41 324 290 331 278 332 303 311 329 237 231 238 237 249 263 281 291 337 333
2 1 359 357 355 352 350 345 340 339 335 334 331 327 328 324 321 318 284 257 26 261 301 272 267 264 269 275 273 275 312 320 337 310 308 328 281 274 304 293 276 282 276 276 299 315 299
359 357 355 352 351 348 345 338 338 338 336 333 332 329 330 325 319 299 223 285 309 19 309 297 223 232 215 43 269 269 134 283 314 315 312 318 301 315 315 312 311 301 295 298 280 282 270
355 354 353 350 344 347 341 337 336 335 335 333 331 330 332 332 316 302 263 330 7 49 300 208 158 177 198 231 247 206 191 177 254 291 293 278 290 292 300 300 302 289 272 283 288 287 275
354 352 351 346 343 341 337 338 336 335 334 332 329 329 329 323 300 301 320 341 24 57 5 187 131 154 207 214 263 289 162 160 236 250 254 249 277 291 307 353 339 315 329 308 313 288 290
354 352 350 349 346 338 337 337 335 336 333 331 328 323 331 6 198 253 305 338 1 283 263 143 156 212 204 253 296 256 249 176 227 245 258 261 255 320 184 330 318 307 341 332 303 271 264
353 349 349 348 342 338 337 336 333 335 332 329 326 318 316 274 252 324 3 337 357 237 233 69 9 4 337 302 284 258 283 279 273 289 294 321 330 29 97 306 319 335 42 313 298 250 256
352 352 349 346 339 338 337 338 336 335 332 329 327 314 235 214 267 311 12 344 253 330 1 5 1 326 289 315 10 342 315 330 332 21 339 306 314 76 126 191 241 296 253 186 275 270 297
350 352 345 341 343 339 341 340 339 336 334 328 325 306 245 245 243 318 18 311 331 323 7 2 349 322 331 357 1 328 337 329 358 19 342 316 287 303 225 258 242 170 259 236 218 284 335
345 346 341 343 343 342 343 342 340 337 336 327 319 284 273 175 136 5 7 287 299 30 357 354 316 317 339 345 353 336 335 346 342 34 4 334 308 289 328 332 313 184 205 309 218 242 253
330 336 339 344 343 345 345 342 341 340 339 326 219 264 171 315 87 10 268 265 305 327 29 357 307 311 337 335 333 319 309 320 343 12 351 28 293 296 321 281 290 311 314 1 40 213 205
336 336 339 340 343 346 349 344 341 343 345 347 310 325 188 167 18 199 249 292 345 335 4 320 50 319 351 324 318 304 295 301 80 65 336 66 274 282 273 278 271 277 317 179 223 280 251
333 335 335 337 342 347 350 345 340 342 359 322 313 268 220 109 50 329 326 348 312 338 331 333 3 357 326 297 308 319 295 312 65 37 6 350 291 305 301 257 109 105 317 133 272 231 241
332 333 334 336 344 350 350 345 341 337 339 331 293 324 16 338 12 18 336 329 327 320 341 352 276 285 290 289 283 279 307 304 285 235 263 131 234 222 260 269 302 293 284 266 261 273 285
329 333 333 343 348 349 349 350 348 341 336 329 319 24 355 322 338 316 301 291 305 337 358 352 333 329 346 326 316 298 311 303 301 58 97 187 247 233 256 269 273 271 275 271 261 244 253
328 332 338 347 348 350 353 350 352 349 338 77 6 360 348 293 307 294 292 347 347 331 331 314 295 329 331 304 283 290 300 305 301 3 236 198 267 275 269 271 261 267 262 259 259 263 254
325 337 346 346 347 348 352 356 360 3 349 18 356 329 330 291 303 310 18 332 311 306 278 295 289 304 298 280 289 304 290 282 281 184 184 204 270 267 263 322 322 287 300 267 273 281 235
328 342 345 340 343 348 351 354 358 1 6 326 320 281 318 289 317 316 318 303 306 321 290 293 302 274 286 327 311 290 273 260 248 145 143 178 227 270 284 304 271 90 36 12 329 33 28
329 340 336 337 339 344 348 350 353 352 350 319 303 293 236 282 298 296 344 316 299 291 335 320 321 314 341 314 292 300 308 174 176 163 169 155 187 283 288 284 274 298 41 19 0 315 26
328 332 332 333 334 337 342 343 343 344 338 316 298 297 242 290 253 305 317 302 322 326 315 307 326 333 301 273 298 288 283 278 301 130 139 172 194 187 321 284 291 38 3 351 319 253 14
326 326 329 328 329 332 334 337 335 333 333 320 286 315 257 259 268 257 297 312 304 297 283 324 343 319 341 327 296 247 263 356 330 306 215 206 225 223 235 247 277 26 353 315 275 294 333
318 320 323 322 322 325 329 328 329 322 319 318 291 286 267 266 281 269 275 270 289 288 273 316 336 8 309 322 345 342 318 309 333 304 249 228 242 253 255 266 282 28 10 350 318 307 308
314 317 318 319 319 321 321 321 321 316 318 324 277 295 323 265 266 300 279 263 253 253 252 236 244 355 290 306 49 306 306 296 326 286 124 246 195 264 214 247 333 312 271 302 286 291 299